CDT,Max TemperatureF,Mean TemperatureF,Min TemperatureF,Max Dew PointF,MeanDew PointF,Min DewpointF,Max Humidity, Mean Humidity, Min Humidity, Max Sea Level PressureIn, Mean Sea Level PressureIn, Min Sea Level PressureIn, Max VisibilityMiles, Mean VisibilityMiles, Min VisibilityMiles, Max Wind SpeedMPH, Mean Wind SpeedMPH, Max Gust SpeedMPH,PrecipitationIn, CloudCover, Events, WindDirDegrees
2013-3-1,37,34,31,34,31,28,96,91,85,30.14,30.08,30.05,10,5,1,13,7,21,0.10,8,Snow,311
2013-3-2,33,32,30,28,24,16,92,73,53,30.22,30.17,30.10,10,8,2,18,10,23,T,8,Snow,334
2013-3-3,40,31,21,28,20,16,84,61,37,30.21,30.16,30.10,10,10,10,10,3,16,0.00,4,,313
2013-3-4,57,47,36,41,29,22,75,57,38,30.10,29.92,29.78,10,10,7,23,11,31,0.03,5,Rain,123
2013-3-5,47,40,33,43,34,20,100,77,54,30.09,29.89,29.75,10,6,1,24,11,36,0.13,6,Rain-Snow,300
2013-3-6,44,36,28,26,24,22,78,64,49,30.34,30.28,30.10,10,10,9,23,11,33,T,7,,329
2013-3-7,46,36,25,28,26,23,92,71,49,30.42,30.38,30.34,10,10,9,9,3,14,0.00,1,,84
2013-3-8,55,41,26,32,28,24,92,61,30,30.45,30.35,30.25,10,9,5,14,5,20,0.00,0,,91
2013-3-9,68,55,41,35,32,28,62,46,29,30.22,30.07,29.94,10,10,10,17,9,23,0.00,3,,144
2013-3-10,67,59,50,54,46,35,96,70,43,29.93,29.80,29.71,10,8,2,30,13,38,0.40,5,Rain,190
2013-3-11,52,44,35,49,36,29,93,79,64,30.02,29.84,29.74,10,10,3,21,11,28,T,8,Rain,246
2013-3-12,51,39,27,29,26,22,92,66,39,30.19,30.10,30.02,10,10,9,17,7,32,0.00,2,,274
2013-3-13,44,35,25,26,20,17,69,53,36,30.43,30.34,30.20,10,10,10,22,9,31,0.00,2,,325
2013-3-14,48,35,22,28,23,19,88,64,40,30.42,30.33,30.14,10,10,10,13,4,18,T,4,Rain,163
2013-3-15,74,52,30,49,40,26,85,62,38,30.12,29.94,29.77,10,10,10,23,8,32,0.00,0,,219
2013-3-16,69,57,44,50,44,37,76,62,48,29.98,29.84,29.74,10,9,5,23,14,31,0.00,2,,288
2013-3-17,44,41,38,42,38,35,100,88,76,30.03,29.94,29.73,10,5,2,20,12,23,0.79,8,Rain,52
2013-3-18,51,43,34,45,40,33,100,83,66,30.00,29.76,29.66,10,7,2,21,8,25,1.01,7,Rain-Thunderstorm,297
2013-3-19,53,42,30,33,22,15,92,58,24,30.21,30.15,30.02,10,10,10,15,5,20,0.00,1,,343
2013-3-20,46,36,25,31,23,15,76,60,43,30.24,30.16,30.10,10,10,10,22,9,28,0.00,2,,320
2013-3-21,42,31,19,23,15,11,77,55,33,30.13,30.07,29.99,10,10,10,12,5,20,0.00,2,,14
2013-3-22,42,38,34,25,23,20,61,53,45,30.04,30.01,29.98,10,10,10,10,7,13,T,8,,82
2013-3-23,55,48,40,43,31,26,86,64,42,30.00,29.91,29.76,10,10,6,17,9,24,0.04,8,Rain,60
2013-3-24,46,40,33,41,36,28,93,84,75,29.78,29.62,29.45,10,6,1,25,13,35,0.07,8,Rain-Snow,338
2013-3-25,39,36,32,30,27,24,92,78,64,30.18,30.01,29.80,10,8,2,22,14,29,T,8,Snow,290
2013-3-26,44,35,25,30,26,23,85,65,45,30.37,30.26,30.18,10,8,2,13,6,17,T,7,Snow,299
2013-3-27,50,36,22,33,25,20,92,66,39,30.42,30.36,30.32,10,9,4,12,2,16,0.00,1,,262
2013-3-28,61,50,39,39,33,30,79,58,37,30.38,30.32,30.25,10,10,10,9,4,13,0.01,7,Rain,92
2013-3-29,57,48,39,48,44,40,93,83,72,30.26,30.23,30.18,10,7,2,16,5,21,0.97,7,Rain,100
2013-3-30,56,47,38,49,45,37,100,83,66,30.21,30.08,29.92,10,3,0,12,4,14,0.47,7,Fog-Rain,112
2013-3-31,63,56,48,52,48,44,100,78,56,29.97,29.90,29.86,10,6,1,9,4,17,T,6,,257